Location: Kergonan
(48.2337°N, 4.5518°W)
Time: 21:03:21
(UTC+00:00)

Cosmos 2341 Rocket - Pass Details

Date: 18 January 2020
Orbit: 967 x 1005 km, 82.9° (Epoch: 27 February)

Event Time Altitude Azimuth Distance (km) Brightness Sun altitude
Rises 06:18:09 0° 349° (NNW) 3,711 6.8 -16.9°
Reaches altitude 10° 06:20:42 10° 347° (NNW) 2,753 6.1 -16.5°
Maximum altitude 06:26:57 70° 265° (W) 1,040 3.9 -15.5°
Drops below altitude 10° 06:33:07 10° 183° (S) 2,710 6.5 -14.5°
Sets 06:35:36 0° 182° (S) 3,650 7.2 -14.1°
